This is the latest recevied weather packets stored in our database for station/object WA7CUG. If no packets are shown the sender has not sent any weather packets the latest 10 day(s).
| Time | Temp. | Humidity | Pressure | Rain* | Wind** | Luminosity | Snow |
|---|---|---|---|---|---|---|---|
| 1777906991 | 15° C | 60% | 1011.4 hPa | 0 mm | - | 196 W/m² | - |
| 1777906689 | 15° C | 60% | 1011.3 hPa | 0 mm | - | 52 W/m² | - |
| 1777906385 | 14.44° C | 60% | 1011.4 hPa | 0 mm | - | 66 W/m² | - |
| 1777906081 | 15° C | 60% | 1011.4 hPa | 0 mm | - | 136 W/m² | - |
| 1777905777 | 14.44° C | 62% | 1011.2 hPa | 0 mm | - | 137 W/m² | - |
| 1777905475 | 13.89° C | 63% | 1011.3 hPa | 0 mm | - | 142 W/m² | - |
| 1777905172 | 13.89° C | 62% | 1011.4 hPa | 0 mm | - | 130 W/m² | - |
| 1777904870 | 13.33° C | 69% | 1011.7 hPa | 0 mm | - | 120 W/m² | - |
| 1777904566 | 12.78° C | 72% | 1011.2 hPa | 0 mm | - | 102 W/m² | - |
| 1777904263 | 13.33° C | 69% | 1011.4 hPa | 0 mm | - | 95 W/m² | - |
| 1777903961 | 12.78° C | 72% | 1011.4 hPa | 0 mm | - | 93 W/m² | - |
| 1777903657 | 12.78° C | 72% | 1011.2 hPa | 0 mm | - | 89 W/m² | - |
| 1777903353 | 12.78° C | 72% | 1011.3 hPa | 0 mm | - | 80 W/m² | - |
| 1777903050 | 12.22° C | 72% | 1011.2 hPa | 0 mm | - | 74 W/m² | - |
| 1777902746 | 12.22° C | 72% | 1011.4 hPa | 0 mm | - | 65 W/m² | - |
| 1777902444 | 10.56° C | 72% | 1010.9 hPa | 0 mm | - | 58 W/m² | - |
| 1777902140 | 10.56° C | 76% | 1011.2 hPa | 0 mm | - | 53 W/m² | - |
| 1777901839 | 10° C | 77% | 1011.2 hPa | 0 mm | - | 48 W/m² | - |
| 1777901536 | 9.44° C | 77% | 1011.1 hPa | 0 mm | - | 40 W/m² | - |
| 1777901233 | 10.56° C | 77% | 1011.2 hPa | 0 mm | - | 36 W/m² | - |
| 1777900930 | 10° C | 73% | 1011 hPa | 0 mm | - | 32 W/m² | - |
| 1777900628 | 8.33° C | 81% | 1011.1 hPa | 0 mm | - | 29 W/m² | - |
| 1777900324 | 8.89° C | 81% | 1011.1 hPa | 0 mm | - | 25 W/m² | - |
| 1777900022 | 9.44° C | 79% | 1010.9 hPa | 0 mm | - | 22 W/m² | - |
| 1777899717 | 8.89° C | 79% | 1010.8 hPa | 0 mm | - | 18 W/m² | - |
* Rain latest hour (hover to see other rain measurements)
** Current wind speed in m/s (hover to see current wind gust speed)